TJS-2

Last updated on Tue Oct 28 2025 00:02:50 GMT+0000 (Coordinated Universal Time)

1 41911U 17001A 25300.48636632 .00000004 00000+0 00000+0 0 9995 2 41911 0.2244 89.1188 0001967 163.4043 25.2387 1.00274912 32388
UTC large
Height (km)
Speed (km/s)
/
Latitude / Longitude
Inclination (degrees)
Orbital Period (minutes)
Azimuth
Elevation
Range (km)
Doppler Factor

Next 0 passes for location: London (51.5072 / 0.1276)

Sorry there are no passes over London.